| time (UTC) | temp F | wind direction | speed knots | gust knots | rain 1hr in | rain 24hr in | rain mn in | humidity % | barometer mb |
| 20260503211735 | 83 | 263 | 1.7 | 2.6 | 0.00 | 0.00 | 0.00 | 38 | 1017.4 |
| 20260503204735 | 83 | 264 | 1.7 | 1.7 | 0.00 | 0.00 | 0.00 | 38 | 1018.0 |
| 20260503201732 | 85 | 180 | 0.9 | 1.7 | 0.00 | 0.00 | 0.00 | 34 | 1018.5 |
| 20260503194731 | 84 | 193 | 2.6 | 4.3 | 0.00 | 0.00 | 0.00 | 35 | 1018.8 |
| 20260503191731 | 84 | 240 | 2.6 | 2.6 | 0.00 | 0.00 | 0.00 | 36 | 1019.7 |
| 20260503184727 | 82 | 249 | 0.0 | 0.9 | 0.00 | 0.00 | 0.00 | 39 | 1019.8 |
| 20260503181721 | 83 | 152 | 5.2 | 6.1 | 0.00 | 0.00 | 0.00 | 40 | 1020.2 |
| 20260503174720 | 81 | 302 | 2.6 | 2.6 | 0.00 | 0.00 | 0.00 | 43 | 1021.0 |
| 20260503171717 | 80 | 249 | 1.7 | 1.7 | 0.00 | 0.00 | 0.00 | 45 | 1021.5 |
| 20260503081629 | 55 | 145 | 0.0 | 0.0 | 0.00 | 0.00 | 0.00 | 84 | 1020.3 |
| 20260503071625 | 57 | 146 | 0.0 | 0.0 | 0.00 | 0.00 | 0.00 | 77 | 1020.8 |
| 20260503054614 | 60 | 153 | 0.0 | 0.0 | 0.00 | 0.00 | 0.00 | 70 | 1020.8 |
| 20260503051613 | 61 | 150 | 0.0 | 0.0 | 0.00 | 0.00 | 0.00 | 67 | 1020.3 |
| 20260503044613 | 63 | 167 | 0.0 | 0.9 | 0.00 | 0.00 | 0.00 | 64 | 1020.5 |
| 20260503041611 | 64 | 157 | 0.0 | 0.9 | 0.00 | 0.00 | 0.00 | 62 | 1020.2 |
| 20260503034606 | 62 | 277 | 0.0 | 0.0 | 0.00 | 0.00 | 0.00 | 66 | 1020.5 |
| 20260503031604 | 62 | 281 | 0.0 | 0.0 | 0.00 | 0.00 | 0.00 | 66 | 1020.2 |
| 20260503024602 | 62 | 281 | 0.0 | 0.0 | 0.00 | 0.00 | 0.00 | 63 | 1020.2 |
| 20260503021600 | 64 | 281 | 0.0 | 0.0 | 0.00 | 0.00 | 0.00 | 63 | 1019.6 |
| 20260503014557 | 66 | 281 | 0.0 | 0.0 | 0.00 | 0.00 | 0.00 | 59 | 1019.4 |
| 20260503011558 | 69 | 281 | 0.0 | 0.0 | 0.00 | 0.00 | 0.00 | 53 | 1019.3 |
| 20260503004556 | 74 | 281 | 0.0 | 0.0 | 0.00 | 0.00 | 0.00 | 46 | 1019.2 |
| 20260503001555 | 76 | 278 | 1.7 | 1.7 | 0.00 | 0.00 | 0.00 | 39 | 1019.0 |
| 20260502234553 | 78 | 282 | 1.7 | 2.6 | 0.00 | 0.00 | 0.00 | 38 | 1019.1 |
| 20260502231550 | 77 | 217 | 0.0 | 0.9 | 0.00 | 0.00 | 0.00 | 36 | 1019.1 |
| 20260502224545 | 78 | 286 | 2.6 | 2.6 | 0.00 | 0.00 | 0.00 | 36 | 1019.5 |
| 20260502221544 | 77 | 273 | 0.9 | 0.9 | 0.00 | 0.00 | 0.00 | 35 | 1019.5 |
| 20260502214543 | 78 | 287 | 0.0 | 0.0 | 0.00 | 0.00 | 0.00 | 38 | 1019.8 |